Algona, IA

5:34 PM CDT on May 28, 2017 (GMT -0500)
Algona Municipal

Weather History for KAXA - February, 2013

Change the Weather History Date:

Thursday, February 28, 2013

  Actual Average Record
Temperature  
Mean Temperature 22 °F -  
Max Temperature 28 °F 30 °F 46 °F (2004)
Min Temperature 17 °F 16 °F -7 °F (2015)
Degree Days  
Heating Degree Days 42    
Moisture  
Dew Point 22 °F    
Average Humidity 89    
Maximum Humidity 93    
Minimum Humidity 80    
Precipitation  
Precipitation 0.00 in - - ()
Sea Level Pressure  
Sea Level Pressure 30.11 in    
Wind  
Wind Speed 12 mph (NNW)    
Max Wind Speed 16 mph    
Max Gust Speed 21 mph    
Visibility 10 miles    
Events Rain    
Averages and records for this station are not official NWS values.
T = Trace of Precipitation, MM = Missing Value Source: NWS Daily Summary

Daily Weather History Graph

Daily Weather History Graph

Search for Another Location

Airport or City:

Trip Planner

Search our weather history database for the weather conditions in past years. The results will help you decide how hot, cold, wet, or windy it might be!

Date:

Astronomy

Feb. 28, 2013 Rise Set
Actual Time 6:54 AM CST 6:05 PM CST
Civil Twilight 6:25 AM CST 6:33 PM CST
Nautical Twilight 5:52 AM CST 7:06 PM CST
Astronomical Twilight 5:20 AM CST 7:39 PM CST
Moon 9:40 PM CST 7:58 AM CST
Length of Visible Light 12h 08m
Length of Day
11h 11m
Waning Gibbous, 90% of the Moon is Illuminated
Feb 28
Waning Gibbous
Mar 4
Last Quarter
Mar 11
New
Mar 19
First Quarter
Mar 27
Full

Hourly Weather History & Observations

Time (CST) Temp. Windchill Dew Point Humidity Pressure Visibility Wind Dir Wind Speed Gust Speed Precip Events Conditions
12:15 AM 21.2 °F 8.9 °F 19.4 °F 93% 30.00 in 10.0 mi NNW 12.7 mph 19.6 mph N/A   Overcast
12:35 AM 21.2 °F 8.3 °F 19.4 °F 93% 30.00 in 10.0 mi NNW 13.8 mph - N/A   Overcast
12:55 AM 21.2 °F 9.5 °F 19.4 °F 93% 30.01 in 10.0 mi NNW 11.5 mph - N/A   Overcast
1:15 AM 21.2 °F 8.3 °F 19.4 °F 93% 30.01 in 10.0 mi NNW 13.8 mph 20.7 mph N/A   Overcast
1:35 AM 21.2 °F 7.3 °F 19.4 °F 93% 30.02 in 10.0 mi NNW 16.1 mph - N/A   Mostly Cloudy
1:55 AM 19.4 °F 7.2 °F 17.6 °F 93% 30.02 in - NNW 11.5 mph - N/A   Unknown
2:15 AM 19.4 °F 6.0 °F 17.6 °F 93% 30.02 in 10.0 mi NNW 13.8 mph - N/A   Partly Cloudy
2:35 AM 19.4 °F 5.0 °F 17.6 °F 93% 30.02 in 10.0 mi NNW 16.1 mph - N/A   Partly Cloudy
2:55 AM 17.6 °F 3.7 °F 15.8 °F 93% 30.02 in 10.0 mi NNW 13.8 mph - N/A   Scattered Clouds
3:15 AM 17.6 °F 3.7 °F 15.8 °F 93% 30.02 in 10.0 mi NNW 13.8 mph - N/A   Mostly Cloudy
3:55 AM 17.6 °F 5.0 °F 14.0 °F 86% 30.03 in 9.0 mi NNW 11.5 mph 18.4 mph N/A   Overcast
4:35 AM 17.6 °F 3.2 °F 15.8 °F 93% 30.04 in 10.0 mi NNW 15.0 mph - N/A   Overcast
4:55 AM 19.4 °F 6.0 °F 15.8 °F 86% 30.05 in 10.0 mi NNW 13.8 mph - N/A   Overcast
5:15 AM 19.4 °F 6.0 °F 17.6 °F 93% 30.05 in 10.0 mi NNW 13.8 mph - N/A   Overcast
5:35 AM 19.4 °F 6.0 °F 17.6 °F 93% 30.06 in 10.0 mi NNW 13.8 mph - N/A   Overcast
5:55 AM 21.2 °F 8.9 °F 17.6 °F 86% 30.07 in 10.0 mi NNW 12.7 mph 18.4 mph N/A   Overcast
6:15 AM 21.2 °F 8.3 °F 19.4 °F 93% 30.07 in 10.0 mi NNW 13.8 mph - N/A   Overcast
6:35 AM 21.2 °F 8.3 °F 19.4 °F 93% 30.07 in 10.0 mi NNW 13.8 mph - N/A   Overcast
6:55 AM 23.0 °F 11.7 °F 19.4 °F 86% 30.07 in 9.0 mi NNW 11.5 mph - N/A   Overcast
7:15 AM 23.0 °F 11.1 °F 21.2 °F 93% 30.08 in 9.0 mi NNW 12.7 mph - N/A   Overcast
7:35 AM 23.0 °F 11.7 °F 21.2 °F 93% 30.09 in 9.0 mi NNW 11.5 mph - N/A   Overcast
7:55 AM 23.0 °F 11.7 °F 21.2 °F 93% 30.09 in 9.0 mi NNW 11.5 mph - N/A   Overcast
8:15 AM 24.8 °F 14.0 °F 21.2 °F 86% 30.10 in 10.0 mi NNW 11.5 mph - N/A   Overcast
8:35 AM 24.8 °F 14.6 °F 21.2 °F 86% 30.11 in 10.0 mi NNW 10.4 mph - N/A   Overcast
8:55 AM 24.8 °F 14.0 °F 21.2 °F 86% 30.11 in 10.0 mi NNW 11.5 mph - N/A   Overcast
9:15 AM 24.8 °F 14.0 °F 21.2 °F 86% 30.12 in 10.0 mi NNW 11.5 mph - N/A   Overcast
9:55 AM 24.8 °F 14.0 °F 23.0 °F 93% 30.12 in 10.0 mi NNW 11.5 mph - N/A   Overcast
10:15 AM 26.6 °F 16.2 °F 23.0 °F 86% 30.12 in 10.0 mi NNW 11.5 mph - N/A   Overcast
10:35 AM 26.6 °F 15.7 °F 23.0 °F 86% 30.12 in 10.0 mi NNW 12.7 mph - N/A   Overcast
10:55 AM 26.6 °F 15.2 °F 23.0 °F 86% 30.13 in 10.0 mi NNW 13.8 mph - N/A   Overcast
11:15 AM 26.6 °F 15.2 °F 23.0 °F 86% 30.13 in 8.0 mi NNW 13.8 mph - N/A   Light Freezing Rain
11:35 AM 28.4 °F 18.0 °F 24.8 °F 86% 30.13 in 10.0 mi NNW 12.7 mph - N/A   Overcast
11:55 AM 28.4 °F 18.0 °F 24.8 °F 86% 30.13 in 10.0 mi NNW 12.7 mph - N/A   Overcast
12:15 PM 28.4 °F 17.5 °F 23.0 °F 80% 30.13 in 10.0 mi NNW 13.8 mph - N/A   Overcast
12:35 PM 28.4 °F 18.5 °F 23.0 °F 80% 30.13 in 10.0 mi NNW 11.5 mph 18.4 mph N/A   Overcast
12:55 PM 28.4 °F 17.5 °F 23.0 °F 80% 30.13 in 10.0 mi NNW 13.8 mph - N/A   Overcast
1:15 PM 28.4 °F 17.0 °F 23.0 °F 80% 30.13 in 10.0 mi NNW 15.0 mph 20.7 mph N/A   Overcast
1:35 PM 28.4 °F 18.0 °F 23.0 °F 80% 30.12 in 10.0 mi NNW 12.7 mph - N/A Rain Light Freezing Rain
1:55 PM 28.4 °F 18.0 °F 23.0 °F 80% 30.12 in 10.0 mi NNW 12.7 mph - N/A   Light Freezing Rain
2:15 PM 28.4 °F 17.5 °F 23.0 °F 80% 30.12 in 10.0 mi NNW 13.8 mph 20.7 mph N/A   Overcast
2:35 PM 28.4 °F 17.5 °F 23.0 °F 80% 30.12 in 10.0 mi NNW 13.8 mph - N/A   Overcast
3:15 PM 28.4 °F 17.0 °F 23.0 °F 80% 30.13 in 10.0 mi NNW 15.0 mph - N/A   Overcast
3:35 PM 28.4 °F 18.5 °F 23.0 °F 80% 30.13 in 10.0 mi NNW 11.5 mph - N/A   Overcast
3:55 PM 28.4 °F 18.5 °F 24.8 °F 86% 30.13 in 10.0 mi NNW 11.5 mph - N/A Rain Light Freezing Rain
4:15 PM 28.4 °F 18.0 °F 24.8 °F 86% 30.13 in 9.0 mi NNW 12.7 mph - N/A Rain Light Freezing Rain
4:35 PM 26.6 °F 16.2 °F 24.8 °F 93% 30.13 in 10.0 mi NNW 11.5 mph - N/A Rain Light Freezing Rain
4:55 PM 26.6 °F 15.7 °F 24.8 °F 93% 30.13 in 9.0 mi NNW 12.7 mph - N/A Rain Light Freezing Rain
5:15 PM 26.6 °F 17.5 °F 23.0 °F 86% 30.14 in 10.0 mi NNW 9.2 mph 16.1 mph N/A Rain Light Freezing Rain
5:35 PM 26.6 °F 16.8 °F 24.8 °F 93% 30.14 in 9.0 mi NNW 10.4 mph - N/A Rain Light Freezing Rain
6:15 PM 26.6 °F 17.5 °F 24.8 °F 93% 30.15 in 9.0 mi NNW 9.2 mph 16.1 mph N/A Rain Light Freezing Rain
6:35 PM 26.6 °F 17.5 °F 24.8 °F 93% 30.15 in 9.0 mi NNW 9.2 mph - N/A Rain Light Freezing Rain
6:55 PM 26.6 °F 16.8 °F 24.8 °F 93% 30.16 in 10.0 mi NNW 10.4 mph - N/A Rain Light Freezing Rain
7:15 PM 26.6 °F 18.2 °F 24.8 °F 93% 30.16 in 10.0 mi NNW 8.1 mph - N/A Rain Light Freezing Rain
7:35 PM 26.6 °F 17.5 °F 24.8 °F 93% 30.16 in 10.0 mi NNW 9.2 mph - N/A Rain Light Freezing Rain
7:55 PM 26.6 °F 18.2 °F 24.8 °F 93% 30.16 in 10.0 mi NNW 8.1 mph - N/A Rain Light Freezing Rain
8:15 PM 26.6 °F 18.2 °F 23.0 °F 86% 30.16 in 10.0 mi NNW 8.1 mph - N/A   Overcast
8:35 PM 26.6 °F 18.2 °F 23.0 °F 86% 30.16 in 10.0 mi NNW 8.1 mph - N/A   Overcast
8:55 PM 24.8 °F 15.3 °F 23.0 °F 93% 30.16 in 10.0 mi NNW 9.2 mph - N/A   Overcast
9:15 PM 24.8 °F 14.6 °F 23.0 °F 93% 30.16 in 10.0 mi NNW 10.4 mph - N/A   Overcast
9:35 PM 24.8 °F 14.0 °F 23.0 °F 93% 30.16 in 10.0 mi NNW 11.5 mph - N/A   Overcast
9:55 PM 24.8 °F 14.0 °F 23.0 °F 93% 30.17 in 10.0 mi NNW 11.5 mph - N/A   Overcast
10:15 PM 24.8 °F 15.3 °F 23.0 °F 93% 30.17 in - NNW 9.2 mph - N/A   Overcast
10:35 PM 24.8 °F 14.0 °F 23.0 °F 93% 30.16 in 10.0 mi NNW 11.5 mph - N/A   Overcast
10:55 PM 24.8 °F 15.3 °F 23.0 °F 93% 30.16 in 10.0 mi NNW 9.2 mph - N/A Rain Light Freezing Rain
11:15 PM 24.8 °F 14.0 °F 23.0 °F 93% 30.16 in 10.0 mi NNW 11.5 mph - N/A   Overcast
11:35 PM 24.8 °F 16.1 °F 23.0 °F 93% 30.16 in 10.0 mi NNW 8.1 mph - N/A Rain Light Freezing Rain
11:55 PM 24.8 °F 15.3 °F 23.0 °F 93% 30.16 in 10.0 mi North 9.2 mph - N/A Rain Light Freezing Rain